Regional Weather Roundup
Issued by NWS

Home | Current Version | Previous Version | Text Only | Print | Product List | Glossary Off
Versions: 1 2 3 4 5 6 7 8 9 10 11 12 13 14 15 16 17 18 19 20 21 22 23 24 25 26 27 28 29 30 31 32 33 34 35 36 37 38 39 40 41 42 43 44 45 46 47

000
ASUS43 KDMX 240207
RWRIA

WEATHER ROUNDUP FOR IOWA
NATIONAL WEATHER SERVICE DES MOINES IA
900 PM CDT TUE SEP 23 2014

NOTE: "FAIR" INDICATES FEW OR NO CLOUDS BELOW 12,000 FEET WITH NO
SIGNIFICANT WEATHER AND/OR OBSTRUCTIONS TO VISIBILITY.

* - THESE STATIONS ARE NOT NWS STATIONS...THUS NOT UNDER NWS
QUALITY CONTROL.  THEY ALSO DO NOT REPORT WEATHER SUCH
AS PRECIPITATION OR FOG.

IAZ001>003-012>014-020>022-031>034-043>046-240300-
   NORTHWEST IOWA

CITY           SKY/WX    TMP DP  RH WIND       PRES   REMARKS
CARROLL *      CLOUDY    61  55  82 SE8       30.14R
CHEROKEE *     CLOUDY    61  58  90 S7        30.10R
DENISON *      CLOUDY    64  55  72 S12G22    30.10S
LE MARS *        N/A     63  55  77 S9        30.08R
ORANGE CITY *  CLOUDY    63  57  82 S8        30.08S
SHELDON *      CLOUDY    59  57  94 SE10      30.08S
SIOUX CITY     CLOUDY    64  53  67 S12G21    30.07S
SPENCER        LGT RAIN  60  57  89 E8        30.13R
STORM LAKE *   CLOUDY    61  61 100 S15       30.11R
$$

IAZ055>058-069>071-079>083-090>094-240300-
   SOUTHWEST IOWA

CITY           SKY/WX    TMP DP  RH WIND       PRES   REMARKS
ATLANTIC *     CLOUDY    64  54  68 S9        30.14R
AUDUBON *      MOCLDY    63  54  72 S5        30.16R
CLARINDA *     CLEAR     59  55  88 CALM      30.16R
COUNCIL BLFS * CLOUDY    63  57  82 SE10      30.11R
CRESTON *      CLOUDY    63  50  63 S8G14     30.18R
HARLAN  *      CLOUDY    64  54  68 S14G21    30.15F
LAMONI         CLOUDY    62  54  74 SE13      30.12F
RED OAK *      CLOUDY    63  54  72 SE8G14    30.14S
SHENANDOAH *     N/A     59  57  94 CALM      30.15R
$$

IAZ047>049-059>061-072>074-084-240300-
   CENTRAL IOWA

CITY           SKY/WX    TMP DP  RH WIND       PRES   REMARKS
AMES           MOCLDY    59  52  77 SE3       30.17R
ANKENY *       MOCLDY    63  54  72 SE6       30.17R
CHARITON *     CLOUDY    63  54  72 SE8       30.17R
DES MOINES     CLOUDY    65  52  62 SE8       30.16S
GRINNELL*      CLOUDY    62  51  67 SE8       30.20S
KNOXVILLE *    CLOUDY    64  50  59 SE8       30.17R
MARSHALLTOWN   CLOUDY    62  51  67 SE8       30.18S
PELLA *        CLOUDY    62  52  70 SE7       30.19S
PERRY *        MOCLDY    61  54  77 SE6       30.16R
$$

IAZ004>006-015-016-023>025-035-036-240300-
   NORTH CENTRAL IOWA

CITY           SKY/WX    TMP DP  RH WIND       PRES   REMARKS
ALGONA *       CLOUDY    61  54  77 SE12      30.14R
CLARION *      CLOUDY    63  50  63 SE9       30.15S
ESTHERVILLE    CLOUDY    60  54  80 S5        30.14R
FORT DODGE *   MOCLDY    63  52  67 SE7       30.15R
MASON CITY     CLOUDY    63  50  62 SE13      30.17F
FOREST CITY *  MOCLDY    61  52  72 SE8       30.16R
IOWA FALLS *     N/A     62  50  65 SE6       30.19S
$$

IAZ007>011-017>019-026>030-037>042-050>054-066-240300-
   NORTHEAST IOWA

CITY           SKY/WX    TMP DP  RH WIND       PRES   REMARKS
CEDAR RAPIDS   CLOUDY    58  52  80 CALM      30.21R
CHARLES CITY * CLOUDY    61  50  67 SE8       30.20S
CLINTON *      CLOUDY    61  48  63 SE7       30.27S
DECORAH *      CLOUDY    59  50  72 SE5       30.21S
DUBUQUE        MOCLDY    60  47  61 SE9       30.24S
MONTICELLO *   MOCLDY    55  50  82 S3        30.23R
OELWEIN *      CLOUDY    59  50  72 SE6       30.22R
WATERLOO       CLOUDY    63  48  58 S8        30.19S
$$

IAZ064-065-067-068-078-240300-
   EAST CENTRAL IOWA

CITY           SKY/WX    TMP DP  RH WIND       PRES   REMARKS
DAVENPORT      MOCLDY    60  46  59 E6        30.25R
IOWA CITY      CLOUDY    60  53  77 SE3       30.23R
MT. PLEASANT * MOCLDY    58  50  75 SE5       30.23R
MUSCATINE *    CLOUDY    59  54  82 CALM      30.23S
QUAD CITIES    CLOUDY    62  48  60 E3        30.24R
$$

IAZ062-063-075>077-085>089-095>099-240300-
   SOUTHEAST IOWA

CITY           SKY/WX    TMP DP  RH WIND       PRES   REMARKS
BURLINGTON     MOCLDY    60  51  72 SE5       30.22S
FAIRFIELD *    MOCLDY    57  50  77 SE6       30.22R
FORT MADISON * MOCLDY    63  50  63 SE3       30.24R
KEOKUK *       MOCLDY    57  55  94 CALM      30.23R
OSKALOOSA *      N/A     60  52  76 SE9       30.21R
CENTERVILLE *  CLEAR     61  54  77 SE7       30.20S
OTTUMWA        MOCLDY    60  51  72 SE8       30.20R
WASHINGTON *   CLOUDY    59  54  82 S5        30.22S
$$

ABBREVIATIONS USED IN REMARKS
   TC - TEMPERATURES IN CELSIUS
  WCI - WIND CHILL INDEX
   HX - HEAT INDEX
  VSB - VISIBILITY
$$



USA.gov is the U.S. government's official web portal to all federal, state and local government web resources and services.